FW8774 Weather Reports


time (UTC)temp
F
wind
direction
speed
knots
gust
knots
rain 1hr
in
rain 24hr
in
rain mn
in
humidity
%
barometer
mb
20260507112621 41 261 3.5 7.0 0.00 0.00 0.00 78 1015.4
20260507111849 41 250 3.5 6.1 0.00 0.00 0.00 79 1015.2
20260507111844 41 254 3.5 6.1 0.00 0.00 0.00 79 1015.3
20260507110840 41 254 3.5 6.1 0.00 0.00 0.00 79 1015.2
20260507110341 41 252 3.5 6.1 0.00 0.00 0.00 79 1015.1
20260507110112 41 246 2.6 6.1 0.00 0.00 0.00 79 1015.0
20260507105340 41 252 2.6 5.2 0.00 0.00 0.00 79 1014.9
20260507104840 41 254 1.7 5.2 0.00 0.00 0.00 79 1014.9
20260507104340 41 257 1.7 5.2 0.00 0.00 0.00 79 1014.9
20260507103840 41 257 2.6 5.2 0.00 0.00 0.00 78 1015.0
20260507103340 41 263 2.6 5.2 0.00 0.00 0.00 79 1014.9
20260507102838 40 262 1.7 3.5 0.00 0.00 0.00 79 1014.9
20260507102338 40 262 1.7 3.5 0.00 0.00 0.00 79 1015.0
20260507101838 40 260 1.7 3.5 0.00 0.00 0.00 79 1014.9
20260507101610 40 260 1.7 3.5 0.00 0.00 0.00 80 1014.8
20260507100843 41 260 1.7 3.5 0.00 0.00 0.00 80 1014.8
20260507100338 41 260 1.7 3.5 0.00 0.00 0.00 80 1014.8
20260507100108 41 260 1.7 3.5 0.00 0.00 0.00 80 1014.7
20260507095603 41 261 1.7 3.5 0.00 0.00 0.00 80 1014.8
20260507095056 41 260 1.7 3.5 0.00 0.00 0.00 80 1014.8
20260507094320 41 261 1.7 2.6 0.00 0.00 0.00 80 1014.8
20260507093813 41 261 1.7 2.6 0.00 0.00 0.00 80 1014.9
20260507093309 41 260 1.7 3.5 0.00 0.00 0.00 80 1014.8
20260507093034 41 260 1.7 3.5 0.00 0.00 0.00 79 1014.7
20260507092256 41 260 1.7 3.5 0.00 0.00 0.00 79 1014.7
20260507091750 41 260 1.7 3.5 0.00 0.00 0.00 79 1014.6
20260507091514 41 260 1.7 3.5 0.00 0.00 0.00 79 1014.7
20260507091009 41 261 1.7 2.6 0.00 0.00 0.00 79 1014.6
20260507090231 42 261 1.7 2.6 0.00 0.00 0.00 79 1014.6
20260507085726 42 261 1.7 2.6 0.00 0.00 0.00 79 1014.6
20260507085721 42 261 1.7 2.6 0.00 0.00 0.00 79 1014.6
20260507084713 42 261 0.9 1.7 0.00 0.00 0.00 79 1014.7
20260507084308 42 261 1.7 2.6 0.00 0.00 0.00 78 1014.6
20260507083155 42 261 1.7 3.5 0.00 0.00 0.00 78 1014.5
20260507082650 42 261 1.7 3.5 0.00 0.00 0.00 78 1014.5
20260507082144 43 261 1.7 3.5 0.00 0.00 0.00 77 1014.5
20260507081637 43 261 1.7 3.5 0.00 0.01 0.00 77 1014.5
20260507081131 43 261 1.7 3.5 0.00 0.01 0.00 77 1014.5
20260507080856 43 261 1.7 6.1 0.00 0.01 0.00 77 1014.5
20260507080119 43 262 2.6 6.1 0.00 0.01 0.00 76 1014.6
20260507075613 44 262 2.6 6.1 0.00 0.01 0.00 76 1014.6
20260507075107 44 262 1.7 5.2 0.00 0.01 0.00 76 1014.5
20260507074602 44 266 1.7 5.2 0.00 0.01 0.00 76 1014.5
20260507074558 44 267 2.6 5.2 0.00 0.01 0.00 76 1014.5
20260507073552 44 274 1.7 5.2 0.00 0.01 0.00 76 1014.5
20260507073051 44 271 2.6 5.2 0.00 0.01 0.00 76 1014.7
20260507072552 44 0 2.6 5.2 0.00 0.01 0.00 76 1014.6
20260507072324 44 267 3.5 7.0 0.00 0.01 0.00 76 1014.6
20260507071552 44 261 3.5 7.0 0.00 0.02 0.00 76 1014.5
20260507071052 45 259 3.5 7.0 0.00 0.02 0.00 76 1014.5
20260507070554 45 268 3.5 6.1 0.00 0.02 0.00 77 1014.6
20260507070052 45 251 3.5 6.1 0.00 0.02 0.00 77 1014.5
20260507065823 45 245 3.5 6.1 0.00 0.03 0.00 77 1014.6
20260507065052 45 0 2.6 6.1 0.00 0.03 0.00 77 1014.7
20260507064552 45 263 2.6 5.2 0.00 0.04 0.00 77 1014.6
20260507064052 45 0 3.5 6.1 0.00 0.04 0.00 77 1014.6
20260507063822 45 265 2.6 6.1 0.00 0.04 0.00 77 1014.6
20260507063052 45 262 2.6 5.2 0.00 0.05 0.00 77 1014.6
20260507062551 45 0 2.6 5.2 0.00 0.05 0.00 77 1014.7
20260507062051 45 274 2.6 5.2 0.00 0.05 0.00 77 1014.7
20260507061816 45 0 2.6 5.2 0.00 0.06 0.00 78 1014.8
20260507061318 45 255 2.6 5.2 0.00 0.06 0.00 78 1014.7
20260507060545 45 256 2.6 5.2 0.00 0.06 0.00 79 1014.7
20260507060318 45 0 2.6 3.5 0.00 0.06 0.00 80 1014.7
20260507055544 45 255 2.6 3.5 0.00 0.06 0.00 80 1014.7
20260507055313 45 255 1.7 5.2 0.00 0.07 0.00 81 1014.7
20260507054814 45 256 2.6 5.2 0.00 0.07 0.00 82 1014.8
20260507054039 44 257 2.6 4.3 0.00 0.07 0.00 83 1014.8
20260507053539 44 304 1.7 3.5 0.00 0.07 0.00 83 1014.8
20260507053039 44 311 1.7 3.5 0.00 0.08 0.00 84 1014.8
20260507052540 44 331 0.9 2.6 0.00 0.09 0.00 84 1014.7
20260507052040 44 333 0.0 1.7 0.00 0.09 0.00 84 1014.8
20260507051810 44 333 0.0 0.0 0.00 0.10 0.00 84 1014.7
20260507051036 44 334 0.0 3.5 0.00 0.11 0.00 83 1014.8
20260507050536 44 334 0.0 3.5 0.00 0.11 0.00 83 1014.7
20260507050036 44 335 0.9 3.5 0.00 0.12 0.00 83 1014.8
20260507045536 45 335 0.9 3.5 0.00 0.12 0.00 82 1014.9
20260507045035 45 335 0.0 1.7 0.00 0.12 0.00 81 1014.8
20260507044536 45 0 0.9 1.7 0.00 0.13 0.00 81 1014.8
20260507044035 45 335 0.9 1.7 0.00 0.13 0.00 80 1014.8
20260507043535 46 334 0.9 1.7 0.00 0.13 0.00 80 1014.9
20260507043035 46 335 0.0 1.7 0.00 0.13 0.00 79 1014.8
20260507042536 46 0 0.0 3.5 0.00 0.13 0.00 79 1014.8
20260507042036 46 336 0.9 3.5 0.00 0.14 0.00 78 1014.8
20260507041536 46 336 0.9 3.5 0.00 0.14 0.00 77 1014.8
20260507041036 47 336 0.9 3.5 0.00 0.14 0.00 77 1014.8
20260507040536 47 232 0.9 2.6 0.00 0.14 0.00 76 1014.8
20260507040035 47 232 0.9 4.3 0.00 0.15 0.00 76 1014.9
20260507035535 47 232 1.7 4.3 0.00 0.15 0.15 76 1014.8
20260507035035 47 232 2.6 4.3 0.00 0.15 0.15 76 1014.7
20260507034804 47 232 1.7 4.3 0.00 0.16 0.15 75 1014.7
20260507034031 47 240 1.7 4.3 0.00 0.16 0.15 75 1014.8
20260507033530 47 240 2.6 4.3 0.00 0.16 0.15 75 1014.8
20260507033029 47 240 1.7 4.3 0.00 0.17 0.15 75 1014.7
20260507032527 47 250 1.7 3.5 0.00 0.17 0.15 74 1014.8
20260507032027 48 250 2.6 3.5 0.00 0.17 0.15 74 1014.8
20260507031756 48 251 2.6 3.5 0.00 0.17 0.15 74 1014.9
20260507030525 48 265 1.7 3.5 0.00 0.18 0.15 73 1014.9
20260507030025 48 265 1.7 3.5 0.00 0.18 0.15 73 1014.9
20260507025524 48 265 1.7 3.5 0.00 0.18 0.15 73 1014.9
20260507025025 48 265 0.9 2.6 0.00 0.19 0.15 72 1015.0
20260507024523 48 266 0.9 1.7 0.00 0.20 0.15 73 1015.0
20260507024022 48 266 0.9 1.7 0.00 0.21 0.15 73 1015.0
20260507023522 48 266 0.9 1.7 0.00 0.22 0.15 73 1015.0
20260507023020 48 266 0.9 1.7 0.00 0.23 0.15 75 1015.1
20260507022518 48 265 0.9 1.7 0.00 0.24 0.15 75 1015.0
20260507022251 47 0 0.9 1.7 0.00 0.25 0.15 76 1015.1
20260507021514 47 0 0.9 1.7 0.00 0.26 0.15 77 1015.0
20260507021008 47 0 0.0 1.7 0.00 0.27 0.15 80 1015.0
20260507020733 47 0 0.0 0.0 0.00 0.27 0.15 81 1015.0
20260507015956 47 0 0.0 0.0 0.00 0.28 0.15 79 1015.0
20260507015449 47 0 0.0 0.0 0.00 0.29 0.15 79 1014.9
20260507014944 47 0 0.0 0.0 0.00 0.30 0.15 78 1014.9
20260507014438 47 0 0.0 0.0 0.00 0.31 0.15 77 1014.8
20260507013932 47 0 0.0 0.0 0.00 0.32 0.15 75 1014.8
20260507013658 48 0 0.0 0.0 0.00 0.34 0.15 75 1014.8
20260507012920 48 0 0.0 0.0 0.00 0.34 0.15 76 1014.7
20260507012414 48 0 0.0 0.0 0.00 0.35 0.15 75 1014.5
20260507011908 49 0 0.0 0.0 0.00 0.36 0.15 75 1014.5
20260507011402 49 0 0.0 0.9 0.00 0.36 0.15 73 1014.5
20260507010856 49 0 0.0 0.9 0.00 0.36 0.15 70 1014.5
20260507010350 50 0 0.0 0.9 0.00 0.37 0.15 72 1014.5
20260507005844 50 0 0.0 0.9 0.00 0.38 0.15 73 1014.5
20260507005339 51 0 0.0 0.9 0.00 0.38 0.15 70 1014.5
20260507004832 51 0 0.0 1.7 0.00 0.39 0.15 68 1014.4
20260507004556 52 0 0.0 1.7 0.00 0.39 0.15 67 1014.5
20260507004050 52 0 0.0 1.7 0.00 0.40 0.15 64 1014.3
20260507003314 52 0 0.9 5.2 0.00 0.41 0.15 61 1014.3
20260507002809 52 0 1.7 5.2 0.00 0.41 0.15 60 1014.3
20260507002533 52 0 1.7 5.2 0.00 0.42 0.15 60 1014.3
20260507001756 53 266 2.6 4.3 0.00 0.42 0.15 59 1014.4
20260507001250 53 0 2.6 5.2 0.00 0.43 0.15 59 1014.3
20260507000744 53 268 2.6 6.1 0.00 0.43 0.15 58 1014.3
20260507000238 54 269 3.5 6.1 0.00 0.44 0.15 58 1014.3
20260506235732 54 243 2.6 6.1 0.00 0.44 0.15 57 1014.3
20260506235226 55 285 1.7 4.3 0.00 0.44 0.15 57 1014.2
20260506234721 55 285 2.6 4.3 0.00 0.45 0.15 56 1014.3
20260506234214 55 302 1.7 4.3 0.00 0.45 0.15 55 1014.2
20260506233708 55 310 1.7 3.5 0.00 0.45 0.15 55 1014.3
20260506233206 55 310 1.7 3.5 0.00 0.45 0.15 55 1014.3
20260506232707 54 310 1.7 3.5 0.00 0.45 0.15 56 1014.3
20260506232205 53 310 1.7 3.5 0.00 0.46 0.15 57 1014.4
20260506231707 53 315 0.9 2.6 0.00 0.46 0.15 58 1014.4
20260506231206 53 315 0.9 3.5 0.00 0.46 0.15 59 1014.5
20260506230705 53 316 1.7 3.5 0.00 0.46 0.15 58 1014.5
20260506230205 53 316 1.7 3.5 0.00 0.47 0.15 59 1014.5
20260506225706 53 316 1.7 3.5 0.00 0.47 0.15 57 1014.6
20260506225206 53 322 1.7 3.5 0.00 0.48 0.15 60 1014.5
20260506224706 53 322 1.7 3.5 0.00 0.49 0.15 58 1014.5
20260506224206 53 321 1.7 5.2 0.00 0.49 0.15 57 1014.6
20260506223705 53 320 2.6 5.2 0.00 0.49 0.15 58 1014.5
20260506223208 53 0 2.6 7.0 0.00 0.49 0.15 57 1014.6
20260506222704 53 0 3.5 7.0 0.00 0.49 0.15 56 1014.6
20260506222203 53 327 3.5 7.0 0.00 0.50 0.15 58 1014.5
20260506221704 53 333 3.5 7.0 0.00 0.50 0.15 57 1014.5
20260506221159 53 321 2.6 6.1 0.00 0.50 0.15 57 1014.5
20260506220659 53 334 2.6 8.7 0.00 0.50 0.15 59 1014.4
20260506220157 53 324 3.5 8.7 0.00 0.51 0.15 58 1014.4
20260506215657 53 303 4.3 8.7 0.00 0.52 0.15 57 1014.5
20260506215158 53 300 4.3 8.7 0.00 0.52 0.15 56 1014.4
20260506214929 53 0 3.5 8.7 0.00 0.54 0.15 56 1014.4
20260506214158 53 316 4.3 9.6 0.00 0.54 0.15 57 1014.4
20260506213659 54 0 4.3 9.6 0.00 0.54 0.15 56 1014.3
20260506213158 54 0 4.3 7.8 0.00 0.54 0.15 55 1014.4
20260506212658 54 0 4.3 10.4 0.00 0.54 0.15 54 1014.3
20260506212158 54 323 4.3 10.4 0.00 0.54 0.15 55 1014.2
20260506211929 54 280 6.1 10.4 0.00 0.54 0.15 57 1014.0
20260506211153 54 261 7.0 10.4 0.00 0.54 0.15 58 1013.8
20260506210654 54 256 6.1 10.4 0.00 0.54 0.15 58 1013.9
20260506210153 54 265 6.1 10.4 0.00 0.55 0.15 58 1013.8
20260506205653 54 258 6.1 10.4 0.00 0.55 0.15 59 1013.9
20260506205154 54 269 6.1 11.3 0.00 0.56 0.15 59 1013.9
20260506204654 54 236 4.3 11.3 0.00 0.57 0.15 60 1013.9
20260506204153 54 240 5.2 9.6 0.00 0.57 0.15 60 1013.8
20260506203654 54 266 5.2 9.6 0.00 0.58 0.15 58 1013.9
20260506203154 54 251 5.2 9.6 0.00 0.59 0.15 58 1013.8
20260506202921 54 318 4.3 8.7 0.00 0.60 0.15 58 1014.0
20260506202421 54 245 3.5 8.7 0.00 0.61 0.15 58 1014.0
20260506201649 54 0 4.3 8.7 0.00 0.63 0.15 59 1014.0
20260506201149 54 0 4.3 8.7 0.00 0.64 0.15 58 1014.0
20260506200650 53 0 4.3 10.4 0.00 0.65 0.15 58 1014.0
20260506200150 53 0 5.2 10.4 0.00 0.66 0.15 58 1014.0
20260506195650 53 0 6.1 10.4 0.00 0.67 0.15 58 1014.2
20260506195150 53 240 5.2 10.4 0.00 0.68 0.15 57 1014.3
20260506194920 53 255 4.3 9.6 0.00 0.69 0.15 58 1014.2
20260506194146 54 272 3.5 9.6 0.00 0.70 0.15 59 1014.0
20260506193645 53 236 4.3 9.6 0.00 0.70 0.15 58 1014.0
20260506193144 53 250 5.2 9.6 0.00 0.71 0.15 57 1014.0
20260506192644 53 252 5.2 9.6 0.00 0.71 0.15 57 1014.0
20260506192148 53 315 5.2 9.6 0.00 0.72 0.15 58 1013.9
20260506192142 53 248 4.3 9.6 0.00 0.71 0.15 58 1014.0
20260506191410 53 260 4.3 9.6 0.00 0.73 0.15 58 1013.9
20260506190909 53 302 4.3 8.7 0.00 0.74 0.15 57 1014.2
20260506190136 53 285 3.5 9.6 0.00 0.74 0.15 56 1014.2
20260506185636 53 270 3.5 9.6 0.00 0.75 0.15 56 1014.0
20260506185138 53 261 5.2 9.6 0.00 0.77 0.15 54 1014.2
20260506185133 53 324 5.2 9.6 0.00 0.76 0.15 55 1014.0
20260506184133 53 308 5.2 12.2 0.00 0.77 0.15 57 1014.2
20260506183633 53 317 4.3 12.2 0.00 0.78 0.15 56 1014.4
20260506183133 53 325 5.2 12.2 0.00 0.79 0.15 56 1014.3
20260506182902 54 273 6.1 12.2 0.00 0.80 0.15 55 1014.2
20260506182130 54 277 5.2 11.3 0.00 0.80 0.15 57 1014.2
20260506181625 54 282 4.3 9.6 0.00 0.81 0.15 56 1014.0
20260506181119 54 294 4.3 9.6 0.00 0.82 0.15 56 1013.8
20260506180613 54 316 5.2 9.6 0.00 0.82 0.15 56 1013.8
20260506180106 53 338 5.2 9.6 0.00 0.82 0.15 55 1014.0
20260506175601 54 331 5.2 9.6 0.00 0.82 0.15 56 1014.0
20260506175055 54 301 5.2 9.6 0.00 0.82 0.15 55 1014.0
20260506174820 54 329 4.3 9.6 0.00 0.82 0.15 56 1014.0
20260506174043 54 282 5.2 10.4 0.00 0.82 0.15 55 1014.0
20260506173537 54 311 4.3 10.4 0.00 0.82 0.15 55 1014.0
20260506173031 54 331 4.3 10.4 0.00 0.83 0.15 54 1014.0
20260506172755 54 333 5.2 13.0 0.00 0.83 0.15 56 1013.9
20260506172018 55 327 5.2 13.0 0.00 0.83 0.15 57 1014.0
20260506171513 55 312 4.3 9.6 0.00 0.84 0.15 59 1013.9
20260506171006 54 289 4.3 9.6 0.00 0.84 0.15 59 1013.9
20260506170500 54 286 4.3 9.6 0.00 0.85 0.15 58 1014.0
20260506165955 53 329 4.3 9.6 0.00 0.85 0.15 57 1014.0
20260506165449 53 337 5.2 9.6 0.00 0.85 0.15 55 1014.2
20260506164943 54 271 5.2 11.3 0.00 0.86 0.15 57 1014.3
20260506164437 54 299 4.3 11.3 0.00 0.86 0.15 58 1014.3
20260506163930 54 53 6.1 11.3 0.00 0.86 0.15 56 1014.3
20260506163424 54 318 5.2 11.3 0.00 0.86 0.15 57 1014.3
20260506162919 54 32 4.3 10.4 0.00 0.86 0.15 59 1014.0
20260506162413 53 336 5.2 10.4 0.00 0.87 0.15 57 1014.0
20260506161907 53 311 4.3 9.6 0.00 0.87 0.15 58 1013.8
20260506161401 54 332 4.3 9.6 0.00 0.87 0.15 59 1014.0
20260506161132 53 312 3.5 8.7 0.00 0.87 0.15 63 1014.4
20260506160621 53 327 3.5 8.7 0.00 0.88 0.15 60 1014.4
20260506155842 53 272 5.2 10.4 0.00 0.89 0.15 58 1014.3
20260506155337 53 330 5.2 10.4 0.00 0.89 0.15 59 1014.2
20260506154830 53 327 4.3 10.4 0.00 0.89 0.15 59 1014.2
20260506154600 52 300 4.3 10.4 0.00 0.89 0.15 61 1014.2
20260506153829 52 298 4.3 10.4 0.00 0.89 0.15 60 1013.9
20260506153329 53 350 4.3 9.6 0.00 0.89 0.15 61 1013.9
20260506152829 53 336 3.5 9.6 0.00 0.89 0.15 62 1013.9
20260506152328 53 324 3.5 9.6 0.00 0.89 0.15 65 1013.9
20260506151829 52 324 5.2 9.6 0.00 0.89 0.15 65 1013.9
20260506151329 52 51 5.2 9.6 0.00 0.89 0.15 68 1013.7
20260506150828 52 315 5.2 12.2 0.00 0.89 0.15 70 1013.5
20260506150327 51 280 5.2 12.2 0.00 0.89 0.15 66 1013.6
20260506145827 51 321 5.2 12.2 0.00 0.89 0.15 70 1013.4
20260506145327 51 318 5.2 12.2 0.00 0.89 0.15 68 1013.5
20260506144827 51 0 3.5 12.2 0.00 0.89 0.15 69 1013.5
20260506144327 51 333 3.5 12.2 0.00 0.89 0.15 69 1013.4
20260506143828 51 329 4.3 10.4 0.00 0.89 0.15 72 1013.3
20260506143327 51 313 5.2 10.4 0.00 0.89 0.15 72 1013.4
20260506142827 51 295 4.3 10.4 0.00 0.89 0.15 71 1013.4
20260506142326 50 323 4.3 9.6 0.00 0.89 0.15 73 1013.6
20260506141821 50 333 3.5 9.6 0.00 0.89 0.15 74 1013.4
20260506141315 49 330 4.3 9.6 0.00 0.89 0.15 74 1013.3
20260506140815 49 329 5.2 9.6 0.00 0.89 0.15 74 1013.2
20260506140546 50 307 3.5 9.6 0.00 0.89 0.15 78 1013.1
20260506140422 49 0 3.5 9.6 0.00 0.89 0.15 80 1013.0
20260506135315 49 0 4.3 9.6 0.00 0.89 0.15 79 1013.0
20260506134815 49 324 5.2 9.6 0.00 0.89 0.15 83 1013.0
20260506134314 48 5 6.1 9.6 0.00 0.89 0.15 82 1013.0
20260506133815 48 328 4.3 7.8 0.00 0.89 0.15 84 1013.1
20260506133315 48 318 3.5 7.8 0.00 0.89 0.15 86 1013.0
20260506132814 47 327 3.5 7.8 0.00 0.89 0.15 88 1013.0
20260506132314 47 0 2.6 7.8 0.00 0.89 0.15 89 1013.0
20260506132046 47 0 2.6 7.0 0.00 0.89 0.15 90 1013.0
20260506131315 46 0 3.5 7.0 0.00 0.89 0.15 90 1013.1
20260506130813 46 0 3.5 5.2 0.00 0.89 0.15 91 1013.0
20260506130312 46 0 3.5 5.2 0.00 0.89 0.15 91 1012.9
20260506130044 46 0 3.5 7.0 0.00 0.89 0.15 91 1012.8
20260506125543 45 0 3.5 7.0 0.00 0.89 0.15 92 1012.8
20260506124813 45 0 3.5 7.0 0.00 0.89 0.15 92 1012.7
20260506124312 45 0 3.5 7.0 0.00 0.89 0.15 93 1012.7
20260506124043 45 0 3.5 7.0 0.00 0.89 0.15 93 1012.8
20260506123312 44 0 3.5 7.0 0.00 0.89 0.15 93 1012.7
20260506122813 44 0 3.5 7.0 0.00 0.89 0.15 94 1012.5
20260506122308 44 0 1.7 4.3 0.00 0.89 0.15 94 1012.4
20260506121808 44 0 1.7 4.3 0.00 0.89 0.15 95 1012.3
20260506121308 44 0 2.6 6.1 0.00 0.89 0.15 95 1012.2
20260506121039 44 0 2.6 6.1 0.00 0.89 0.15 95 1012.2
20260506120309 44 0 2.6 6.1 0.00 0.89 0.15 95 1012.4
20260506115808 44 259 2.6 6.1 0.00 0.89 0.15 95 1012.3
20260506115307 44 272 2.6 6.1 0.00 0.89 0.15 95 1012.2
20260506114807 43 269 2.6 6.1 0.00 0.89 0.15 95 1012.0
20260506114307 43 280 2.6 5.2 0.00 0.89 0.15 95 1011.9
20260506113807 43 295 2.6 4.3 0.00 0.89 0.15 95 1011.7
20260506113306 43 300 2.6 3.5 0.00 0.89 0.15 95 1011.6
20260506112806 43 302 1.7 3.5 0.00 0.89 0.15 95 1011.6